20050110,000019,520597,32.620943,-119.453066,14.868,32.923,1.002,1.862
20050110,000049,520627,32.620773,-119.453196,14.866,32.914,0.990,1.845
20050110,000119,520658,32.620613,-119.453303,14.869,32.926,0.977,1.827
20050110,000149,520688,32.620440,-119.453378,14.869,32.918,1.014,1.881
20050110,000220,520719,32.620266,-119.453421,14.868,32.912,0.990,1.842
20050110,000250,520749,32.620125,-119.453438,14.868,32.911,1.014,1.877
20050110,000319,520777,32.619978,-119.453371,14.868,32.900,0.977,1.820
20050110,000350,520808,32.619796,-119.453271,14.870,32.898,1.002,1.856
20050110,000420,520838,32.619620,-119.453128,14.870,32.898,0.977,1.819
20050110,000450,520868,32.619405,-119.453036,14.870,32.890,1.002,1.857
20050110,000520,520899,32.619161,-119.452971,14.869,32.889,0.977,1.822
20050110,000550,520929,32.618946,-119.452903,14.870,32.891,0.977,1.825
20050110,000620,520959,32.618818,-119.452818,14.869,32.885,0.977,1.827
20050110,000650,520988,32.618691,-119.452685,14.867,32.886,0.977,1.830
20050110,000721,521020,32.618545,-119.452551,14.869,32.894,0.977,1.832
20050110,000750,521048,32.618368,-119.452421,14.870,32.901,0.977,1.834
20050110,000820,521079,32.618155,-119.452406,14.867,32.906,0.977,1.836
20050110,000850,521109,32.617870,-119.452405,14.866,32.912,0.977,1.839
20050110,000921,521140,32.617608,-119.452375,14.867,32.914,0.977,1.846
20050110,000950,521168,32.617368,-119.452366,14.870,32.913,0.990,1.873
20050110,001020,521198,32.617128,-119.452328,14.872,32.909,0.977,1.863
20050110,001050,521229,32.616893,-119.452268,14.871,32.895,0.990,1.890
20050110,001120,521259,32.616646,-119.452201,14.870,32.884,0.977,1.876
20050110,001150,521289,32.616403,-119.452111,14.870,32.885,0.990,1.897
20050110,001220,521318,32.616206,-119.452081,14.870,32.891,0.977,1.877
20050110,001250,521348,32.616030,-119.452020,14.870,32.898,0.965,1.854
20050110,001320,521378,32.615813,-119.451933,14.870,32.903,0.977,1.866
20050110,001350,521409,32.615593,-119.451830,14.867,32.917,0.953,1.821
20050110,001421,521439,32.615350,-119.451726,14.867,32.938,0.965,1.830
20050110,001450,521469,32.615101,-119.451625,14.868,32.952,0.965,1.819
20050110,001520,521498,32.614856,-119.451548,14.869,32.957,0.953,1.789
20050110,001550,521528,32.614628,-119.451500,14.870,32.954,0.965,1.797
20050110,001621,521559,32.614380,-119.451398,14.872,32.948,0.977,1.808
20050110,001650,521589,32.614151,-119.451288,14.868,32.950,0.977,1.804
20050110,001720,521619,32.613921,-119.451198,14.870,32.957,0.977,1.802
20050110,001750,521648,32.613681,-119.451115,14.870,32.965,0.990,1.819
20050110,001820,521678,32.613421,-119.451021,14.867,32.964,0.977,1.799
20050110,001851,521710,32.613105,-119.450980,14.868,32.974,0.990,1.814
20050110,001921,521739,32.612806,-119.450906,14.868,32.984,0.977,1.790
20050110,001950,521769,32.612550,-119.450871,14.868,32.986,0.977,1.783
20050110,002021,521799,32.612345,-119.450758,14.870,32.989,0.990,1.795
20050110,002051,521830,32.612208,-119.450625,14.871,32.987,0.977,1.773
20050110,002121,521860,32.612113,-119.450398,14.871,32.970,0.977,1.771
20050110,002151,521889,32.611981,-119.450156,14.874,32.955,0.977,1.771
20050110,002221,521919,32.611836,-119.449960,14.874,32.947,0.977,1.772
20050110,002251,521949,32.611720,-119.449735,14.872,32.933,0.977,1.771
20050110,002321,521980,32.611596,-119.449566,14.870,32.927,0.977,1.770
20050110,002351,522010,32.611416,-119.449418,14.871,32.924,0.990,1.787
20050110,002421,522040,32.611248,-119.449361,14.872,32.932,0.965,1.748
20050110,002451,522069,32.611005,-119.449396,14.870,32.933,0.990,1.782
20050110,002521,522099,32.610763,-119.449393,14.872,32.930,0.977,1.763
20050110,002551,522129,32.610556,-119.449376,14.872,32.923,0.990,1.780
20050110,002621,522160,32.610341,-119.449315,14.869,32.922,0.965,1.743
20050110,002651,522190,32.610120,-119.449306,14.865,32.924,0.953,1.725
20050110,002721,522220,32.609868,-119.449280,14.868,32.927,0.977,1.760
20050110,002752,522251,32.609605,-119.449230,14.869,32.932,0.965,1.742
20050110,002822,522281,32.609388,-119.449205,14.870,32.938,0.965,1.741
20050110,002851,522309,32.609216,-119.449108,14.868,32.935,0.965,1.741
20050110,002921,522340,32.609095,-119.449051,14.870,32.930,0.977,1.759
20050110,002951,522370,32.609015,-119.448926,14.869,32.926,0.965,1.741
20050110,003022,522401,32.608915,-119.448836,14.872,32.917,0.953,1.723
20050110,003052,522431,32.608728,-119.448790,14.867,32.923,0.977,1.758
20050110,003121,522459,32.608483,-119.448841,14.869,32.926,0.977,1.758
20050110,003152,522490,32.608235,-119.448931,14.867,32.929,0.965,1.739
20050110,003222,522520,32.608008,-119.448966,14.868,32.933,0.977,1.757
20050110,003252,522550,32.607861,-119.448921,14.867,32.932,0.965,1.738
20050110,003321,522579,32.607765,-119.448788,14.868,32.932,0.965,1.738
20050110,003352,522611,32.607531,-119.448561,14.867,32.932,0.953,1.719
20050110,003422,522641,32.607110,-119.448225,14.867,32.932,0.965,1.737
20050110,003452,522670,32.606573,-119.447873,14.868,32.933,0.941,1.701
20050110,003522,522700,32.605971,-119.447525,14.866,32.935,0.965,1.735
20050110,003553,522731,32.605380,-119.447193,14.867,32.930,0.965,1.735
20050110,003623,522761,32.604851,-119.446866,14.867,32.931,0.977,1.753
20050110,003653,522791,32.604433,-119.446588,14.865,32.931,0.977,1.753
20050110,003723,522822,32.604158,-119.446366,14.867,32.926,0.953,1.717
20050110,003753,522852,32.603751,-119.446205,14.867,32.925,0.917,1.666
20050110,003823,522882,32.603280,-119.445985,14.867,32.918,0.929,1.683
20050110,003853,522911,32.602963,-119.445491,14.867,32.915,0.941,1.701
20050110,003923,522941,32.602975,-119.444871,14.868,32.913,0.929,1.683
20050110,003952,522971,32.603231,-119.444280,14.867,32.911,0.941,1.700
20050110,004022,523000,32.603558,-119.443626,14.867,32.905,0.917,1.666
20050110,004052,523030,32.603833,-119.443028,14.870,32.891,0.917,1.665
20050110,004123,523061,32.604106,-119.442470,14.870,32.869,0.929,1.682
20050110,004153,523091,32.604358,-119.441935,14.868,32.855,0.953,1.717
20050110,004222,523121,32.604600,-119.441410,14.868,32.873,0.953,1.717
20050110,004253,523152,32.604845,-119.440896,14.871,32.860,0.906,1.648
20050110,004323,523182,32.605083,-119.440385,14.870,32.855,0.953,1.718
20050110,004352,523210,32.605290,-119.439886,14.867,32.852,0.953,1.718
20050110,004423,523241,32.605493,-119.439355,14.867,32.874,0.953,1.717
20050110,004452,523271,32.605731,-119.438875,14.863,32.898,0.977,1.753
20050110,004523,523301,32.606016,-119.438330,14.864,32.943,0.977,1.753
20050110,004552,523330,32.606351,-119.437673,14.864,32.965,0.977,1.753
20050110,004622,523360,32.606728,-119.436913,14.863,32.979,0.977,1.753
20050110,004652,523390,32.607186,-119.436081,14.862,32.987,0.977,1.753
20050110,004723,523421,32.607708,-119.435143,14.863,32.991,0.965,1.735
20050110,004753,523451,32.608240,-119.434126,14.865,32.989,0.965,1.735
20050110,004823,523481,32.608810,-119.433070,14.864,32.986,0.977,1.752
20050110,004852,523510,32.609420,-119.431936,14.863,32.983,0.977,1.752
20050110,004923,523542,32.610091,-119.430741,14.862,32.979,0.977,1.752
20050110,004952,523570,32.610835,-119.429438,14.863,32.973,0.977,1.751
20050110,005022,523601,32.611625,-119.428061,14.860,32.982,0.990,1.769
20050110,005053,523631,32.612448,-119.426638,14.857,32.984,1.002,1.786
20050110,005122,523660,32.613270,-119.425176,14.857,32.982,1.026,1.822
20050110,005153,523692,32.614118,-119.423751,14.857,32.982,1.014,1.804
20050110,005223,523722,32.615086,-119.422488,14.855,32.976,1.014,1.803
20050110,005253,523751,32.616216,-119.421335,14.852,32.965,1.051,1.856
20050110,005323,523781,32.617291,-119.420161,14.853,32.956,1.038,1.838
20050110,005353,523811,32.618333,-119.419025,14.854,32.937,1.063,1.873
20050110,005422,523840,32.619420,-119.417851,14.852,32.923,1.088,1.909
20050110,005453,523872,32.620496,-119.416675,14.848,32.905,1.113,1.945
20050110,005523,523901,32.621613,-119.415468,14.843,32.897,1.088,1.908
20050110,005553,523931,32.622676,-119.414270,14.842,32.896,1.088,1.908
20050110,005623,523961,32.623758,-119.413088,14.843,32.893,1.076,1.890
20050110,005653,523991,32.624833,-119.411907,14.842,32.886,1.063,1.872
20050110,005723,524022,32.625858,-119.410763,14.842,32.895,1.076,1.890
20050110,005754,524052,32.626955,-119.409545,14.842,32.911,1.076,1.890
20050110,005823,524081,32.627966,-119.408403,14.842,32.923,1.076,1.889
20050110,005853,524111,32.629045,-119.407185,14.843,32.933,1.076,1.889
20050110,005924,524143,32.630108,-119.406012,14.840,32.941,1.051,1.853
20050110,005953,524172,32.631123,-119.404867,14.839,32.955,1.088,1.907
20050110,010023,524202,32.632136,-119.403700,14.836,32.964,1.088,1.907
20050110,010054,524232,32.633231,-119.402462,14.832,32.971,1.076,1.889
20050110,010123,524261,32.634283,-119.401277,14.833,32.982,1.101,1.925
20050110,010153,524291,32.635331,-119.400087,14.831,32.991,1.088,1.907
20050110,010223,524321,32.636388,-119.398897,14.828,32.987,1.113,1.944
20050110,010253,524352,32.637433,-119.397723,14.828,32.997,1.101,1.925
20050110,010323,524382,32.638468,-119.396538,14.826,33.004,1.126,1.962
20050110,010353,524411,32.639518,-119.395380,14.826,33.007,1.126,1.962
20050110,010424,524443,32.640545,-119.394202,14.821,33.012,1.176,2.034
20050110,010454,524473,32.641588,-119.393027,14.820,33.014,1.151,1.997
20050110,010523,524502,32.642630,-119.391840,14.819,33.021,1.163,2.016
20050110,010553,524532,32.643671,-119.390652,14.819,33.019,1.163,2.016
20050110,010623,524562,32.644713,-119.389458,14.816,33.018,1.163,2.016
20050110,010653,524591,32.645723,-119.388323,14.815,33.013,1.189,2.053
20050110,010724,524623,32.646780,-119.387092,14.817,33.005,1.215,2.090
20050110,010753,524651,32.647778,-119.385950,14.813,33.007,1.240,2.126
20050110,010824,524682,32.648831,-119.384717,14.812,33.004,1.253,2.145
20050110,010853,524712,32.649888,-119.383552,14.813,32.998,1.240,2.126
20050110,010924,524742,32.650905,-119.382355,14.811,32.995,1.240,2.126
20050110,010954,524773,32.651998,-119.381112,14.808,32.990,1.319,2.240
20050110,011024,524803,32.653008,-119.379952,14.813,32.997,1.228,2.108
20050110,011053,524831,32.654060,-119.378758,14.809,32.995,1.240,2.126
20050110,011124,524862,32.655091,-119.377562,14.806,32.996,1.240,2.126
20050110,011154,524892,32.656165,-119.376330,14.805,33.003,1.266,2.164
20050110,011224,524923,32.657168,-119.375190,14.803,33.006,1.240,2.126
20050110,011255,524953,32.658206,-119.373975,14.801,33.013,1.279,2.183
20050110,011324,524983,32.659186,-119.372852,14.801,33.014,1.266,2.164
20050110,011354,525012,32.660186,-119.371663,14.801,33.019,1.240,2.126
20050110,011424,525042,32.661208,-119.370485,14.801,33.022,1.253,2.145
20050110,011453,525072,32.662230,-119.369307,14.797,33.026,1.240,2.126
20050110,011523,525101,32.663240,-119.368145,14.797,33.035,1.253,2.145
20050110,011553,525131,32.664243,-119.366925,14.798,33.037,1.253,2.145
20050110,011623,525161,32.665275,-119.365732,14.798,33.039,1.215,2.090
20050110,011653,525192,32.666300,-119.364550,14.796,33.040,1.253,2.145
20050110,011723,525222,32.667306,-119.363347,14.796,33.045,1.253,2.145
20050110,011755,525253,32.668345,-119.362107,14.798,33.043,1.228,2.108
20050110,011823,525281,32.669336,-119.360947,14.798,33.043,1.228,2.108
20050110,011854,525313,32.670371,-119.359730,14.797,33.044,1.266,2.164
20050110,011924,525342,32.671428,-119.358467,14.794,33.045,1.253,2.145
20050110,011954,525372,32.672428,-119.357353,14.791,33.051,1.293,2.201
20050110,012025,525404,32.673478,-119.356100,14.787,33.058,1.345,2.277
20050110,012055,525433,32.674490,-119.354902,14.783,33.069,1.371,2.315
20050110,012124,525463,32.675463,-119.353728,14.782,33.067,1.332,2.259
20050110,012154,525493,32.676511,-119.352460,14.783,33.063,1.332,2.259
20050110,012224,525522,32.677511,-119.351283,14.783,33.062,1.332,2.258
20050110,012254,525552,32.678550,-119.350067,14.784,33.049,1.293,2.202
20050110,012324,525582,32.679608,-119.348845,14.781,33.043,1.358,2.296
20050110,012354,525613,32.680600,-119.347698,14.769,33.049,1.358,2.296
20050110,012424,525643,32.681628,-119.346507,14.763,33.059,1.345,2.277
20050110,012454,525672,32.682681,-119.345277,14.759,33.062,1.332,2.259
20050110,012524,525702,32.683673,-119.344117,14.756,33.065,1.371,2.315
20050110,012555,525734,32.684728,-119.342890,14.753,33.058,1.358,2.296
20050110,012625,525763,32.685756,-119.341708,14.746,33.065,1.319,2.239
20050110,012655,525793,32.686790,-119.340537,14.740,33.062,1.332,2.258
20050110,012725,525823,32.687808,-119.339325,14.735,33.063,1.371,2.315
20050110,012755,525854,32.688846,-119.338143,14.733,33.061,1.345,2.277
20050110,012824,525882,32.689835,-119.336990,14.730,33.059,1.358,2.296
20050110,012854,525912,32.690910,-119.335757,14.725,33.057,1.345,2.277
20050110,012924,525943,32.691923,-119.334593,14.723,33.057,1.266,2.164
20050110,012955,525973,32.693023,-119.333352,14.722,33.059,1.240,2.126
20050110,013025,526003,32.694065,-119.332148,14.717,33.059,1.176,2.034
20050110,013054,526032,32.695080,-119.331007,14.713,33.066,1.163,2.015
20050110,013125,526064,32.696173,-119.329798,14.705,33.067,1.126,1.961
20050110,013154,526092,32.697215,-119.328600,14.700,33.067,1.113,1.943
20050110,013225,526123,32.698278,-119.327425,14.698,33.068,1.101,1.925
20050110,013255,526153,32.699303,-119.326215,14.691,33.067,1.026,1.817
20050110,013325,526184,32.700368,-119.325037,14.685,33.074,0.977,1.746
20050110,013355,526214,32.701415,-119.323842,14.681,33.077,0.990,1.764
20050110,013424,526242,32.702461,-119.322672,14.678,33.081,0.941,1.693
20050110,013455,526273,32.703513,-119.321487,14.677,33.081,0.965,1.728
20050110,013525,526303,32.704555,-119.320288,14.675,33.077,0.929,1.676
20050110,013555,526333,32.705613,-119.319088,14.673,33.079,0.870,1.590
20050110,013625,526364,32.706681,-119.317885,14.671,33.078,0.846,1.555
20050110,013654,526392,32.707720,-119.316743,14.668,33.079,0.858,1.572
20050110,013725,526423,32.708826,-119.315507,14.668,33.081,0.835,1.538
20050110,013755,526453,32.709891,-119.314303,14.666,33.079,0.800,1.488
20050110,013825,526483,32.710968,-119.313112,14.663,33.078,0.789,1.471
20050110,013855,526513,32.712046,-119.311947,14.659,33.079,0.789,1.471
20050110,013924,526542,32.713116,-119.310782,14.655,33.087,0.777,1.454
20050110,013954,526572,32.714153,-119.309660,14.652,33.090,0.777,1.454
20050110,014025,526603,32.715241,-119.308460,14.650,33.098,0.777,1.454
20050110,014055,526633,32.716311,-119.307298,14.648,33.104,0.766,1.437
20050110,014125,526663,32.717383,-119.306093,14.648,33.098,0.777,1.454
20050110,014155,526694,32.718443,-119.304895,14.646,33.096,0.777,1.454
20050110,014225,526724,32.719531,-119.303742,14.645,33.097,0.766,1.437
20050110,014255,526754,32.720595,-119.302558,14.643,33.097,0.766,1.438
20050110,014325,526783,32.721666,-119.301403,14.641,33.097,0.743,1.404
20050110,014355,526813,32.722726,-119.300223,14.643,33.091,0.766,1.438
20050110,014425,526843,32.723786,-119.299060,14.640,33.090,0.743,1.404
20050110,014454,526872,32.724856,-119.297912,14.637,33.087,0.732,1.388
20050110,014525,526904,32.725923,-119.296750,14.630,33.089,0.777,1.454
20050110,014555,526933,32.726981,-119.295598,14.625,33.089,0.743,1.404
20050110,014625,526963,32.728086,-119.294390,14.622,33.092,0.721,1.372
20050110,014655,526993,32.729120,-119.293295,14.622,33.093,0.754,1.421
20050110,014725,527024,32.730215,-119.292093,14.615,33.097,0.688,1.322
20050110,014756,527054,32.731283,-119.290942,14.614,33.098,0.688,1.322
20050110,014825,527084,32.732370,-119.289827,14.614,33.103,0.666,1.289
20050110,014855,527113,32.733430,-119.288675,14.614,33.103,0.666,1.289
20050110,014925,527143,32.734511,-119.287535,14.614,33.100,0.677,1.306
20050110,014955,527173,32.735580,-119.286373,14.613,33.100,0.677,1.306
20050110,015025,527204,32.736651,-119.285300,14.615,33.093,0.743,1.404
20050110,015056,527234,32.737776,-119.284113,14.617,33.088,0.710,1.355
20050110,015125,527264,32.738776,-119.282858,14.623,33.080,0.754,1.421
20050110,015156,527295,32.739783,-119.281617,14.638,33.069,0.812,1.505
20050110,015226,527325,32.740778,-119.280378,14.654,33.057,0.894,1.624
20050110,015255,527353,32.741796,-119.279157,14.672,33.054,0.977,1.746
20050110,015325,527384,32.742808,-119.277912,14.687,33.056,0.990,1.764
20050110,015355,527414,32.743805,-119.276672,14.702,33.055,0.990,1.764
20050110,015426,527445,32.744818,-119.275470,14.713,33.057,0.977,1.746
20050110,015456,527475,32.745841,-119.274208,14.722,33.063,0.965,1.728
20050110,015526,527505,32.746868,-119.272997,14.732,33.065,0.965,1.728
20050110,015555,527534,32.747840,-119.271792,14.740,33.069,0.953,1.711
20050110,015625,527564,32.748841,-119.270585,14.748,33.066,0.965,1.728
20050110,015657,527595,32.749873,-119.269312,14.758,33.067,1.002,1.782
20050110,015726,527625,32.750846,-119.268138,14.767,33.067,1.002,1.782
20050110,015757,527655,32.751855,-119.266860,14.771,33.071,0.953,1.711
20050110,015827,527686,32.752873,-119.265643,14.778,33.072,0.990,1.764
20050110,015857,527716,32.753881,-119.264433,14.782,33.068,0.977,1.746
20050110,015927,527746,32.754866,-119.263203,14.783,33.070,0.990,1.764
20050110,015957,527775,32.755866,-119.261983,14.788,33.067,0.990,1.764
20050110,020026,527805,32.756853,-119.260742,14.790,33.065,0.990,1.764
20050110,020057,527835,32.757843,-119.259510,14.795,33.062,1.002,1.782
20050110,020127,527866,32.758825,-119.258262,14.798,33.066,0.977,1.746
20050110,020157,527896,32.759533,-119.256802,14.801,33.067,0.990,1.764
20050110,020227,527926,32.760248,-119.255335,14.803,33.068,0.977,1.746
20050110,020257,527955,32.760940,-119.253828,14.806,33.067,0.990,1.764
20050110,020327,527985,32.761643,-119.252315,14.806,33.066,0.977,1.746
20050110,020357,528015,32.762335,-119.250785,14.808,33.066,0.977,1.746
20050110,020427,528046,32.763045,-119.249280,14.809,33.066,0.977,1.746
20050110,020456,528074,32.763718,-119.247772,14.811,33.066,0.941,1.693
20050110,020527,528105,32.764405,-119.246265,14.813,33.066,0.965,1.728
20050110,020556,528135,32.765078,-119.244762,14.813,33.067,0.965,1.728
20050110,020627,528165,32.765756,-119.243262,14.813,33.068,0.953,1.711
20050110,020657,528196,32.766425,-119.241768,14.816,33.066,0.977,1.746
20050110,020727,528226,32.767090,-119.240247,14.817,33.067,0.990,1.764
20050110,020757,528256,32.767755,-119.238715,14.816,33.071,1.002,1.781
20050110,020827,528285,32.768433,-119.237205,14.817,33.074,0.953,1.711
20050110,020857,528315,32.769106,-119.235685,14.818,33.071,0.953,1.711
20050110,020927,528345,32.769770,-119.234155,14.819,33.068,0.917,1.659
20050110,020956,528374,32.770438,-119.232632,14.819,33.067,0.917,1.659
20050110,021027,528406,32.771100,-119.231103,14.821,33.065,0.929,1.676
20050110,021057,528435,32.771776,-119.229592,14.823,33.056,0.941,1.693
20050110,021127,528465,32.772430,-119.228065,14.823,33.056,0.917,1.659
20050110,021157,528495,32.773105,-119.226535,14.822,33.056,0.953,1.711
20050110,021227,528525,32.773766,-119.225035,14.821,33.055,0.965,1.728
20050110,021257,528556,32.774413,-119.223517,14.821,33.063,0.929,1.676
20050110,021327,528586,32.775098,-119.221947,14.821,33.058,0.965,1.728
20050110,021357,528615,32.775718,-119.220463,14.821,33.056,0.977,1.746
20050110,021426,528645,32.776371,-119.218955,14.820,33.057,0.990,1.764
20050110,021457,528675,32.777043,-119.217455,14.821,33.057,0.977,1.746
20050110,021527,528706,32.777698,-119.215930,14.823,33.057,0.965,1.728
20050110,021557,528736,32.778366,-119.214413,14.823,33.054,0.977,1.746
20050110,021627,528766,32.779061,-119.212842,14.822,33.053,0.990,1.764
20050110,021657,528795,32.779683,-119.211365,14.821,33.053,1.014,1.799
20050110,021728,528827,32.780385,-119.209800,14.821,33.057,1.038,1.834
20050110,021758,528856,32.781033,-119.208260,14.821,33.058,1.051,1.852
20050110,021827,528886,32.781686,-119.206772,14.821,33.057,1.076,1.888
20050110,021857,528916,32.782365,-119.205230,14.823,33.058,1.051,1.852
20050110,021927,528945,32.783066,-119.203647,14.821,33.055,1.038,1.834
20050110,021957,528975,32.783713,-119.202098,14.823,33.057,1.088,1.906
20050110,022028,529007,32.784376,-119.200552,14.824,33.048,1.076,1.888
20050110,022057,529036,32.785018,-119.199078,14.824,33.055,1.076,1.888
20050110,022127,529066,32.785696,-119.197492,14.826,33.049,1.088,1.906
20050110,022158,529096,32.786336,-119.195953,14.828,33.046,1.101,1.925
20050110,022228,529127,32.786996,-119.194420,14.828,33.047,1.126,1.961
20050110,022258,529157,32.787653,-119.192888,14.828,33.047,1.126,1.961
20050110,022327,529185,32.788320,-119.191370,14.829,33.048,1.202,2.071
20050110,022357,529216,32.788956,-119.189853,14.829,33.042,1.215,2.089
20050110,022428,529246,32.789601,-119.188348,14.833,33.051,1.176,2.034
20050110,022457,529276,32.790231,-119.186845,14.832,33.048,1.240,2.126
20050110,022528,529307,32.790873,-119.185330,14.836,33.050,1.215,2.089
20050110,022558,529337,32.791531,-119.183838,14.836,33.054,1.266,2.164
20050110,022627,529365,32.792150,-119.182330,14.836,33.050,1.240,2.126
20050110,022658,529396,32.792788,-119.180837,14.837,33.054,1.253,2.145
20050110,022728,529426,32.793421,-119.179337,14.837,33.054,1.253,2.145
20050110,022757,529455,32.794060,-119.177848,14.836,33.054,1.253,2.145
20050110,022828,529487,32.794695,-119.176348,14.839,33.051,1.253,2.145
20050110,022858,529517,32.795333,-119.174863,14.840,33.053,1.279,2.182
20050110,022927,529546,32.795961,-119.173377,14.841,33.048,1.358,2.296
20050110,022957,529576,32.796600,-119.171883,14.844,33.046,1.332,2.259
20050110,023027,529606,32.797236,-119.170393,14.840,33.052,1.345,2.277
20050110,023058,529637,32.797885,-119.168917,14.835,33.054,1.371,2.315
20050110,023128,529667,32.798530,-119.167377,14.832,33.055,1.385,2.334
20050110,023158,529696,32.799150,-119.165952,14.831,33.057,1.371,2.315
20050110,023229,529728,32.799803,-119.164422,14.829,33.057,1.385,2.334
20050110,023259,529758,32.800420,-119.162948,14.827,33.058,1.412,2.373
20050110,023328,529787,32.801035,-119.161530,14.828,33.056,1.385,2.334
20050110,023359,529817,32.801690,-119.160002,14.826,33.058,1.371,2.315
20050110,023428,529847,32.802323,-119.158513,14.826,33.056,1.398,2.354
20050110,023459,529878,32.802938,-119.157003,14.822,33.056,1.385,2.334
20050110,023529,529908,32.803585,-119.155532,14.824,33.057,1.425,2.392
20050110,023559,529938,32.804213,-119.154038,14.824,33.056,1.398,2.354
20050110,023629,529967,32.804848,-119.152553,14.823,33.056,1.425,2.393
20050110,023659,529997,32.805478,-119.151073,14.821,33.057,1.412,2.373
20050110,023728,530027,32.806125,-119.149588,14.821,33.054,1.412,2.373
20050110,023759,530058,32.806750,-119.148098,14.822,33.052,1.439,2.412
20050110,023829,530088,32.807381,-119.146608,14.821,33.057,1.412,2.373
20050110,023859,530117,32.808028,-119.145130,14.821,33.057,1.425,2.392
20050110,023928,530147,32.808650,-119.143628,14.821,33.057,1.492,2.489
20050110,023959,530177,32.809275,-119.142140,14.821,33.056,1.439,2.412
20050110,024029,530208,32.809931,-119.140580,14.820,33.056,1.479,2.470
20050110,024059,530238,32.810563,-119.139145,14.819,33.054,1.452,2.431
20050110,024128,530266,32.811193,-119.137628,14.821,33.055,1.425,2.393
20050110,024159,530297,32.811835,-119.136138,14.819,33.057,1.425,2.392
20050110,024230,530329,32.812465,-119.134585,14.821,33.053,1.465,2.450
20050110,024300,530358,32.813101,-119.133090,14.819,33.051,1.439,2.412
20050110,024330,530388,32.813740,-119.131588,14.818,33.055,1.452,2.430
20050110,024400,530418,32.814365,-119.130082,14.818,33.054,1.439,2.412
20050110,024430,530448,32.815005,-119.128577,14.818,33.054,1.425,2.392
20050110,024500,530479,32.815653,-119.127095,14.816,33.052,1.465,2.450
20050110,024530,530509,32.816255,-119.125607,14.816,33.049,1.425,2.393
20050110,024600,530538,32.816873,-119.124108,14.815,33.052,1.398,2.354
20050110,024630,530568,32.817516,-119.122617,14.811,33.055,1.385,2.335